,,,PA_Meas_PMT16A,,PR_Meas_QMR101_102,,RH_Meas_QMH101,,SR_Meas_QMS101,,TA_Meas_QMH101,,GenWind,,GenWind,
date,time,status,PA,status,PR,status,RH,status,SR,status,TA,status,DirAvg,status,SpdAvg,
2009-08-01, 00:00:04,VALID,1002.22,VALID,0,VALID,80.0575,VALID,0.100563,VALID,27.7741,VALID,288,VALID,1.42344,
2009-08-01, 00:01:04,VALID,1002.19,VALID,0,VALID,80.0346,VALID,0,VALID,27.7525,VALID,275,VALID,0.905859,
2009-08-01, 00:02:04,VALID,1002.21,VALID,0,VALID,80.1338,VALID,0,VALID,27.7915,VALID,260,VALID,0.513672,
2009-08-01, 00:03:04,VALID,1002.19,VALID,0,VALID,80.149,VALID,0.100563,VALID,27.7915,VALID,285,VALID,0.576953,
2009-08-01, 00:04:04,VALID,1002.17,VALID,0,VALID,80.4923,VALID,0,VALID,27.772,VALID,260,VALID,0.299219,
2009-08-01, 00:05:04,VALID,1002.17,VALID,0,VALID,79.6608,VALID,0,VALID,27.7525,VALID,205,VALID,1.65859,
2009-08-01, 00:06:04,VALID,1002.13,VALID,0,VALID,79.8591,VALID,0,VALID,27.811,VALID,237,VALID,0.632422,
2009-08-01, 00:07:04,VALID,1002.17,VALID,0,VALID,79.1039,VALID,0,VALID,27.8131,VALID,248,VALID,1.46133,
2009-08-01, 00:08:04,VALID,1002.11,VALID,0,VALID,78.5698,VALID,0,VALID,27.8131,VALID,239,VALID,1.21211,
2009-08-01, 00:09:04,VALID,1002.09,VALID,0,VALID,78.3944,VALID,0,VALID,27.8326,VALID,228,VALID,0.637109,
2009-08-01, 00:10:04,VALID,1002.09,VALID,0,VALID,78.5546,VALID,0,VALID,27.85,VALID,309,VALID,0.782422,
2009-08-01, 00:11:04,VALID,1002.07,VALID,0,VALID,77.8985,VALID,0,VALID,27.8911,VALID,287,VALID,2.04727,
2009-08-01, 00:12:04,VALID,1002.1,VALID,0,VALID,78.0358,VALID,0,VALID,27.9105,VALID,226,VALID,0.553516,
2009-08-01, 00:13:04,VALID,1002.08,VALID,0,VALID,78.0053,VALID,0.100563,VALID,27.9279,VALID,329,VALID,0.694141,
2009-08-01, 00:14:04,VALID,1002.07,VALID,0,VALID,77.8527,VALID,0,VALID,27.93,VALID,342,VALID,0.876953,
2009-08-01, 00:15:04,VALID,1002.07,VALID,0,VALID,77.9138,VALID,0.100563,VALID,27.8889,VALID,254,VALID,0.496094,
2009-08-01, 00:16:04,VALID,1002.05,VALID,0,VALID,77.4026,VALID,0,VALID,27.93,VALID,23,VALID,0.933594,
2009-08-01, 00:17:04,VALID,1002.04,VALID,0,VALID,77.0517,VALID,0,VALID,27.9669,VALID,245,VALID,0.777734,
2009-08-01, 00:18:04,VALID,1002.03,VALID,0,VALID,76.7847,VALID,0,VALID,27.9864,VALID,259,VALID,0.775781,
2009-08-01, 00:19:04,VALID,1002.02,VALID,0,VALID,76.922,VALID,0,VALID,28.0275,VALID,185,VALID,1.20156,
2009-08-01, 00:20:04,VALID,1002.01,VALID,0,VALID,76.8915,VALID,0,VALID,28.0059,VALID,275,VALID,1.18203,
2009-08-01, 00:21:04,VALID,1002,VALID,0,VALID,77.0517,VALID,0,VALID,28.047,VALID,244,VALID,0.576563,
2009-08-01, 00:22:04,VALID,1002,VALID,0,VALID,77.2653,VALID,0,VALID,28.047,VALID,300,VALID,0.341797,
2009-08-01, 00:23:04,VALID,1001.96,VALID,0,VALID,77.4408,VALID,0,VALID,28.0254,VALID,353,VALID,0.497656,
2009-08-01, 00:24:04,VALID,1001.95,VALID,0,VALID,77.723,VALID,0,VALID,28.047,VALID,232,VALID,0.216797,
2009-08-01, 00:25:04,VALID,1001.96,VALID,0,VALID,77.9748,VALID,0,VALID,28.0059,VALID,255,VALID,0.684766,
2009-08-01, 00:26:04,VALID,1001.97,VALID,0,VALID,78.135,VALID,0,VALID,28.047,VALID,295,VALID,0.539844,
2009-08-01, 00:27:04,VALID,1001.97,VALID,0,VALID,78.1197,VALID,0,VALID,28.0448,VALID,283,VALID,0.782031,
2009-08-01, 00:28:04,VALID,1001.96,VALID,0,VALID,78.0434,VALID,0,VALID,28.0643,VALID,314,VALID,1.36367,
2009-08-01, 00:29:04,VALID,1001.96,VALID,0,VALID,77.8756,VALID,0,VALID,28.0838,VALID,238,VALID,1.37031,
2009-08-01, 00:30:04,VALID,1001.93,VALID,0,VALID,78.0358,VALID,0,VALID,28.1033,VALID,179,VALID,0.659375,
2009-08-01, 00:31:04,VALID,1001.96,VALID,0,VALID,77.99,VALID,0,VALID,28.1444,VALID,276,VALID,0.630078,
2009-08-01, 00:32:04,VALID,1001.96,VALID,0,VALID,77.868,VALID,0,VALID,28.1249,VALID,302,VALID,1.23867,
2009-08-01, 00:33:04,VALID,1001.95,VALID,0,VALID,77.6925,VALID,0,VALID,28.1033,VALID,248,VALID,1.41289,
2009-08-01, 00:34:04,VALID,1001.93,VALID,0,VALID,77.6086,VALID,0,VALID,28.1444,VALID,292,VALID,0.832031,
2009-08-01, 00:35:04,VALID,1001.92,VALID,0,VALID,77.9366,VALID,0,VALID,28.1639,VALID,270,VALID,1.50898,
2009-08-01, 00:36:04,VALID,1001.9,VALID,0,VALID,77.9977,VALID,0,VALID,28.205,VALID,229,VALID,1.14688,
2009-08-01, 00:37:04,VALID,1001.89,VALID,0,VALID,78.196,VALID,0,VALID,28.1618,VALID,265,VALID,0.538672,
2009-08-01, 00:38:04,VALID,1001.91,VALID,0,VALID,78.4707,VALID,0,VALID,28.1834,VALID,276,VALID,0.918359,
2009-08-01, 00:39:04,VALID,1001.88,VALID,0,VALID,78.6004,VALID,0,VALID,28.1834,VALID,280,VALID,0.780469,
2009-08-01, 00:40:04,VALID,1001.85,VALID,0,VALID,78.9894,VALID,0,VALID,28.1639,VALID,234,VALID,1.99219,
2009-08-01, 00:41:04,VALID,1001.89,VALID,0,VALID,78.5088,VALID,0,VALID,28.1618,VALID,231,VALID,1.21484,
2009-08-01, 00:42:04,VALID,1001.86,VALID,0,VALID,78.463,VALID,0,VALID,28.1834,VALID,166,VALID,0.308203,
2009-08-01, 00:43:04,VALID,1001.86,VALID,0,VALID,78.4325,VALID,0,VALID,28.1639,VALID,301,VALID,0.296094,
2009-08-01, 00:44:04,VALID,1001.82,VALID,0,VALID,78.2723,VALID,0,VALID,28.1639,VALID,268,VALID,1.7457,
2009-08-01, 00:45:04,VALID,1001.81,VALID,0,VALID,78.7224,VALID,0,VALID,28.1834,VALID,123,VALID,0.759375,
2009-08-01, 00:46:04,VALID,1001.8,VALID,0,VALID,78.7834,VALID,0,VALID,28.1834,VALID,237,VALID,0.735937,
2009-08-01, 00:47:04,VALID,1001.77,VALID,0,VALID,78.8521,VALID,0,VALID,28.1834,VALID,239,VALID,0.911328,
2009-08-01, 00:48:04,VALID,1001.75,VALID,0,VALID,78.5317,VALID,0,VALID,28.1639,VALID,280,VALID,1.81797,
2009-08-01, 00:49:04,VALID,1001.78,VALID,0,VALID,78.196,VALID,0,VALID,28.1618,VALID,326,VALID,0.51875,
2009-08-01, 00:50:04,VALID,1001.75,VALID,0,VALID,77.9824,VALID,0,VALID,28.1834,VALID,286,VALID,1.14531,
2009-08-01, 00:51:04,VALID,1001.77,VALID,0,VALID,78.1197,VALID,0,VALID,28.1423,VALID,277,VALID,1.02109,
2009-08-01, 00:52:04,VALID,1001.8,VALID,0,VALID,77.9748,VALID,0,VALID,28.1639,VALID,186,VALID,1.11992,
2009-08-01, 00:53:04,VALID,1001.77,VALID,0,VALID,77.4942,VALID,0,VALID,28.1639,VALID,258,VALID,1.44883,
2009-08-01, 00:54:04,VALID,1001.77,VALID,0,VALID,77.5552,VALID,0,VALID,28.1834,VALID,208,VALID,0.874219,
2009-08-01, 00:55:04,VALID,1001.77,VALID,0,VALID,77.3874,VALID,0,VALID,28.1834,VALID,19,VALID,0.705469,
2009-08-01, 00:56:04,VALID,1001.77,VALID,0,VALID,77.3416,VALID,0,VALID,28.1423,VALID,254,VALID,1.61016,
2009-08-01, 00:57:04,VALID,1001.76,VALID,0,VALID,77.5476,VALID,0,VALID,28.1228,VALID,250,VALID,0.91875,
2009-08-01, 00:58:04,VALID,1001.8,VALID,0,VALID,77.456,VALID,0,VALID,28.1444,VALID,190,VALID,1.53008,
2009-08-01, 00:59:04,VALID,1001.79,VALID,0,VALID,77.4942,VALID,0,VALID,28.1444,VALID,157,VALID,0.977344,
2009-08-01, 01:00:04,VALID,1001.8,VALID,0,VALID,77.5094,VALID,0,VALID,28.1444,VALID,201,VALID,0.647266,
2009-08-01, 01:01:04,VALID,1001.78,VALID,0,VALID,77.2958,VALID,0,VALID,28.1444,VALID,278,VALID,1.12656,
2009-08-01, 01:02:04,VALID,1001.78,VALID,0,VALID,76.8686,VALID,0,VALID,28.1639,VALID,244,VALID,2.37969,
2009-08-01, 01:03:04,VALID,1001.75,VALID,0,VALID,77.0593,VALID,0,VALID,28.1834,VALID,317,VALID,1.30938,
2009-08-01, 01:04:04,VALID,1001.74,VALID,0,VALID,77.2043,VALID,0,VALID,28.1834,VALID,284,VALID,0.820313,
2009-08-01, 01:05:04,VALID,1001.72,VALID,0,VALID,77.3111,VALID,0,VALID,28.1834,VALID,248,VALID,1.47305,
2009-08-01, 01:06:04,VALID,1001.73,VALID,0,VALID,77.807,VALID,0,VALID,28.1834,VALID,184,VALID,0.635938,
2009-08-01, 01:07:04,VALID,1001.69,VALID,0,VALID,77.2348,VALID,0,VALID,28.1834,VALID,250,VALID,2.14141,
2009-08-01, 01:08:04,VALID,1001.71,VALID,0,VALID,77.0669,VALID,0,VALID,28.205,VALID,232,VALID,0.983984,
2009-08-01, 01:09:04,VALID,1001.73,VALID,0,VALID,77.0669,VALID,0,VALID,28.2029,VALID,309,VALID,1.32695,
2009-08-01, 01:10:04,VALID,1001.74,VALID,0,VALID,77.1051,VALID,0,VALID,28.2224,VALID,249,VALID,0.957031,
2009-08-01, 01:11:04,VALID,1001.73,VALID,0,VALID,77.3034,VALID,0,VALID,28.2029,VALID,283,VALID,0.333203,
2009-08-01, 01:12:04,VALID,1001.72,VALID,0,VALID,77.456,VALID,0,VALID,28.2224,VALID,220,VALID,1.23711,
2009-08-01, 01:13:04,VALID,1001.72,VALID,0,VALID,77.3797,VALID,0,VALID,28.1834,VALID,284,VALID,0.767578,
2009-08-01, 01:14:04,VALID,1001.72,VALID,0,VALID,77.6086,VALID,0.100563,VALID,28.1834,VALID,228,VALID,0.661328,
2009-08-01, 01:15:04,VALID,1001.68,VALID,0,VALID,77.3111,VALID,0,VALID,28.1834,VALID,284,VALID,1.00625,
2009-08-01, 01:16:04,VALID,1001.69,VALID,0,VALID,77.2882,VALID,0,VALID,28.1423,VALID,267,VALID,1.62656,
2009-08-01, 01:17:04,VALID,1001.66,VALID,0,VALID,77.5628,VALID,0,VALID,28.1834,VALID,273,VALID,1.05156,
2009-08-01, 01:18:04,VALID,1001.66,VALID,0,VALID,77.2043,VALID,0,VALID,28.1639,VALID,270,VALID,2.0625,
2009-08-01, 01:19:04,VALID,1001.66,VALID,0,VALID,77.2958,VALID,0,VALID,28.1813,VALID,295,VALID,0.742969,
2009-08-01, 01:20:04,VALID,1001.63,VALID,0,VALID,77.2043,VALID,0,VALID,28.2029,VALID,41,VALID,0.886719,
2009-08-01, 01:21:04,VALID,1001.59,VALID,0,VALID,77.1814,VALID,0,VALID,28.1834,VALID,282,VALID,1.03242,
2009-08-01, 01:22:04,VALID,1001.6,VALID,0,VALID,77.2195,VALID,0,VALID,28.2029,VALID,330,VALID,0.850391,
2009-08-01, 01:23:04,VALID,1001.6,VALID,0,VALID,77.601,VALID,0.100563,VALID,28.1834,VALID,327,VALID,0.850781,
2009-08-01, 01:24:04,VALID,1001.58,VALID,0,VALID,77.6086,VALID,0,VALID,28.1834,VALID,249,VALID,0.844531,
2009-08-01, 01:25:04,VALID,1001.6,VALID,0,VALID,77.7307,VALID,0,VALID,28.1639,VALID,224,VALID,0.572656,
2009-08-01, 01:26:04,VALID,1001.58,VALID,0,VALID,77.5552,VALID,0,VALID,28.1444,VALID,286,VALID,1.51367,
2009-08-01, 01:27:04,VALID,1001.59,VALID,0,VALID,77.6925,VALID,0,VALID,28.1639,VALID,221,VALID,0.751953,
2009-08-01, 01:28:04,VALID,1001.55,VALID,0,VALID,77.8832,VALID,0,VALID,28.1444,VALID,252,VALID,0.730078,
2009-08-01, 01:29:04,VALID,1001.51,VALID,0,VALID,77.9366,VALID,0,VALID,28.1249,VALID,200,VALID,0.653516,
2009-08-01, 01:30:04,VALID,1001.53,VALID,0,VALID,77.99,VALID,0,VALID,28.1444,VALID,265,VALID,1.61289,
2009-08-01, 01:31:04,VALID,1001.52,VALID,0,VALID,77.8375,VALID,0,VALID,28.1249,VALID,359,VALID,0.833984,
2009-08-01, 01:32:04,VALID,1001.48,VALID,0,VALID,77.6239,VALID,0,VALID,28.1444,VALID,280,VALID,1.88711,
2009-08-01, 01:33:04,VALID,1001.47,VALID,0,VALID,77.8909,VALID,0,VALID,28.1249,VALID,285,VALID,0.528125,
2009-08-01, 01:34:04,VALID,1001.43,VALID,0,VALID,77.2958,VALID,0,VALID,28.1033,VALID,304,VALID,1.23945,
2009-08-01, 01:35:04,VALID,1001.45,VALID,0,VALID,77.2806,VALID,0,VALID,28.1033,VALID,237,VALID,0.744922,
2009-08-01, 01:36:04,VALID,1001.43,VALID,0,VALID,77.0975,VALID,0,VALID,28.1249,VALID,280,VALID,0.885547,
2009-08-01, 01:37:04,VALID,1001.41,VALID,0,VALID,77.2882,VALID,0.100563,VALID,28.0838,VALID,238,VALID,1.14844,
2009-08-01, 01:38:04,VALID,1001.38,VALID,0,VALID,77.4102,VALID,0,VALID,28.1054,VALID,337,VALID,0.532812,
2009-08-01, 01:39:04,VALID,1001.37,VALID,0,VALID,77.3874,VALID,0,VALID,28.1054,VALID,237,VALID,0.827344,
2009-08-01, 01:40:04,VALID,1001.4,VALID,0,VALID,77.7841,VALID,0,VALID,28.0838,VALID,205,VALID,0.411719,
2009-08-01, 01:41:04,VALID,1001.35,VALID,0,VALID,77.5781,VALID,0,VALID,28.0448,VALID,244,VALID,1.84883,
2009-08-01, 01:42:04,VALID,1001.32,VALID,0,VALID,77.5552,VALID,0.100563,VALID,28.0859,VALID,279,VALID,0.827344,
2009-08-01, 01:43:04,VALID,1001.33,VALID,0,VALID,76.5558,VALID,0,VALID,28.0859,VALID,278,VALID,2.16484,
2009-08-01, 01:44:04,VALID,1001.31,VALID,0,VALID,76.4566,VALID,0,VALID,28.0838,VALID,238,VALID,0.739453,
2009-08-01, 01:45:04,VALID,1001.31,VALID,0,VALID,76.3956,VALID,0,VALID,28.1249,VALID,263,VALID,1.88008,
2009-08-01, 01:46:04,VALID,1001.34,VALID,0,VALID,76.4414,VALID,0,VALID,28.1249,VALID,304,VALID,0.802734,
2009-08-01, 01:47:04,VALID,1001.37,VALID,0,VALID,76.449,VALID,0,VALID,28.1249,VALID,221,VALID,1.025,
2009-08-01, 01:48:04,VALID,1001.32,VALID,0,VALID,76.5863,VALID,0,VALID,28.1249,VALID,237,VALID,0.614453,
2009-08-01, 01:49:04,VALID,1001.36,VALID,0,VALID,76.7618,VALID,0,VALID,28.1249,VALID,233,VALID,0.878125,
2009-08-01, 01:50:04,VALID,1001.38,VALID,0,VALID,76.7084,VALID,0,VALID,28.1249,VALID,267,VALID,0.464844,
2009-08-01, 01:51:04,VALID,1001.35,VALID,0,VALID,76.6092,VALID,0,VALID,28.0859,VALID,233,VALID,1.49805,
2009-08-01, 01:52:04,VALID,1001.35,VALID,0,VALID,76.4566,VALID,0,VALID,28.0859,VALID,198,VALID,0.939453,
2009-08-01, 01:53:04,VALID,1001.33,VALID,0,VALID,76.6474,VALID,0,VALID,28.0665,VALID,251,VALID,1.71758,
2009-08-01, 01:54:04,VALID,1001.32,VALID,0,VALID,76.716,VALID,0,VALID,28.0254,VALID,163,VALID,0.613281,
2009-08-01, 01:55:04,VALID,1001.31,VALID,0,VALID,76.7923,VALID,0,VALID,28.047,VALID,255,VALID,1.0582,
2009-08-01, 01:56:04,VALID,1001.28,VALID,0,VALID,76.2735,VALID,0,VALID,28.0254,VALID,263,VALID,1.47344,
2009-08-01, 01:57:04,VALID,1001.22,VALID,0,VALID,76.3575,VALID,0,VALID,28.0665,VALID,297,VALID,0.988672,
2009-08-01, 01:58:04,VALID,1001.24,VALID,0,VALID,76.4185,VALID,0,VALID,28.0665,VALID,352,VALID,0.784766,
2009-08-01, 01:59:04,VALID,1001.17,VALID,0,VALID,76.2278,VALID,0,VALID,28.0665,VALID,323,VALID,1.30977,
2009-08-01, 02:00:04,VALID,1001.22,VALID,0,VALID,76.4566,VALID,0,VALID,28.0859,VALID,271,VALID,1.35508,
2009-08-01, 02:01:04,VALID,1001.22,VALID,0,VALID,76.5482,VALID,0,VALID,28.0643,VALID,249,VALID,1.40508,
2009-08-01, 02:02:04,VALID,1001.23,VALID,0,VALID,76.7389,VALID,0,VALID,28.1054,VALID,306,VALID,0.889453,
2009-08-01, 02:03:04,VALID,1001.14,VALID,0,VALID,76.7542,VALID,0,VALID,28.1054,VALID,280,VALID,2.31055,
2009-08-01, 02:04:04,VALID,1001.17,VALID,0,VALID,76.8305,VALID,0,VALID,28.1249,VALID,226,VALID,2.06367,
2009-08-01, 02:05:04,VALID,1001.21,VALID,0,VALID,77.1738,VALID,0,VALID,28.1249,VALID,218,VALID,0.671484,
2009-08-01, 02:06:04,VALID,1001.14,VALID,0,VALID,77.2195,VALID,0,VALID,28.1033,VALID,276,VALID,1.39297,
2009-08-01, 02:07:04,VALID,1001.18,VALID,0,VALID,77.2424,VALID,0,VALID,28.1249,VALID,119,VALID,0.652344,
2009-08-01, 02:08:04,VALID,1001.15,VALID,0,VALID,77.4026,VALID,0,VALID,28.0859,VALID,305,VALID,1.5082,
2009-08-01, 02:09:04,VALID,1001.15,VALID,0,VALID,77.4789,VALID,0,VALID,28.0859,VALID,111,VALID,0.511719,
2009-08-01, 02:10:04,VALID,1001.18,VALID,0,VALID,78.0282,VALID,0,VALID,28.0859,VALID,305,VALID,0.523047,
2009-08-01, 02:11:04,VALID,1001.17,VALID,0,VALID,78.0816,VALID,0,VALID,28.0665,VALID,236,VALID,0.426172,
2009-08-01, 02:12:04,VALID,1001.14,VALID,0,VALID,77.4408,VALID,0,VALID,28.0275,VALID,323,VALID,1.50859,
2009-08-01, 02:13:04,VALID,1001.14,VALID,0,VALID,77.1966,VALID,0,VALID,28.0665,VALID,267,VALID,1.56133,
2009-08-01, 02:14:04,VALID,1001.15,VALID,0,VALID,77.0822,VALID,0,VALID,28.0665,VALID,273,VALID,1.0207,
2009-08-01, 02:15:04,VALID,1001.14,VALID,0,VALID,76.9907,VALID,0,VALID,28.0665,VALID,287,VALID,0.923047,
2009-08-01, 02:16:04,VALID,1001.11,VALID,0,VALID,76.8457,VALID,0,VALID,28.0448,VALID,249,VALID,0.917188,
2009-08-01, 02:17:04,VALID,1001.13,VALID,0,VALID,76.6321,VALID,0,VALID,28.0665,VALID,297,VALID,1.61211,
2009-08-01, 02:18:04,VALID,1001.13,VALID,0,VALID,76.7236,VALID,0,VALID,28.0665,VALID,300,VALID,1.07773,
2009-08-01, 02:19:04,VALID,1001.11,VALID,0,VALID,76.5787,VALID,0,VALID,28.1076,VALID,257,VALID,1.54844,
2009-08-01, 02:20:04,VALID,1001.14,VALID,0,VALID,76.8381,VALID,0,VALID,28.0665,VALID,281,VALID,1.22891,
2009-08-01, 02:21:04,VALID,1001.12,VALID,0,VALID,76.6321,VALID,0,VALID,28.0448,VALID,285,VALID,1.86328,
2009-08-01, 02:22:04,VALID,1001.11,VALID,0,VALID,76.5863,VALID,0,VALID,28.0665,VALID,218,VALID,1.03125,
2009-08-01, 02:23:04,VALID,1001.13,VALID,0,VALID,76.5787,VALID,0,VALID,28.047,VALID,286,VALID,0.960547,
2009-08-01, 02:24:04,VALID,1001.13,VALID,0,VALID,76.4795,VALID,0,VALID,28.0254,VALID,277,VALID,1.35586,
2009-08-01, 02:25:04,VALID,1001.15,VALID,0,VALID,76.6092,VALID,0,VALID,28.047,VALID,247,VALID,1.32461,
2009-08-01, 02:26:04,VALID,1001.13,VALID,0,VALID,76.8381,VALID,0,VALID,28.0275,VALID,190,VALID,0.690625,
2009-08-01, 02:27:04,VALID,1001.14,VALID,0,VALID,76.6168,VALID,0,VALID,28.008,VALID,271,VALID,1.70586,
2009-08-01, 02:28:04,VALID,1001.15,VALID,0,VALID,76.6016,VALID,0,VALID,27.9711,VALID,259,VALID,1.08242,
2009-08-01, 02:29:04,VALID,1001.14,VALID,0,VALID,76.655,VALID,0,VALID,27.9906,VALID,241,VALID,1.47734,
2009-08-01, 02:30:04,VALID,1001.11,VALID,0,VALID,76.51,VALID,0,VALID,27.9516,VALID,34,VALID,1.025,
2009-08-01, 02:31:04,VALID,1001.13,VALID,0,VALID,76.3422,VALID,0,VALID,27.9495,VALID,258,VALID,2.02969,
2009-08-01, 02:32:04,VALID,1001.11,VALID,0,VALID,76.1667,VALID,0,VALID,27.9711,VALID,260,VALID,2.65703,
2009-08-01, 02:33:04,VALID,1001.14,VALID,0,VALID,76.3956,VALID,0,VALID,27.969,VALID,259,VALID,0.713672,
2009-08-01, 02:34:04,VALID,1001.12,VALID,0,VALID,76.3193,VALID,0,VALID,28.0101,VALID,262,VALID,1.46016,
2009-08-01, 02:35:04,VALID,1001.09,VALID,0,VALID,76.3117,VALID,0,VALID,28.0101,VALID,275,VALID,1.40078,
2009-08-01, 02:36:04,VALID,1001.11,VALID,0,VALID,76.2278,VALID,0,VALID,27.9906,VALID,279,VALID,1.71172,
2009-08-01, 02:37:04,VALID,1001.1,VALID,0,VALID,76.2583,VALID,0,VALID,27.9906,VALID,265,VALID,1.28594,
2009-08-01, 02:38:04,VALID,1001.06,VALID,0,VALID,76.121,VALID,0,VALID,28.0101,VALID,294,VALID,1.60312,
2009-08-01, 02:39:04,VALID,1001.03,VALID,0,VALID,76.3117,VALID,0,VALID,27.9906,VALID,297,VALID,1.12422,
2009-08-01, 02:40:04,VALID,1001.06,VALID,0,VALID,76.4261,VALID,0,VALID,27.969,VALID,261,VALID,1.74336,
2009-08-01, 02:41:04,VALID,1001.09,VALID,0,VALID,76.7008,VALID,0,VALID,27.969,VALID,175,VALID,0.2625,
2009-08-01, 02:42:04,VALID,1001.03,VALID,0,VALID,77.0822,VALID,0,VALID,27.9711,VALID,268,VALID,2.48242,
2009-08-01, 02:43:04,VALID,1001.08,VALID,0,VALID,77.3111,VALID,0.100563,VALID,27.9084,VALID,216,VALID,0.102734,
2009-08-01, 02:44:04,VALID,1001.09,VALID,0,VALID,77.4789,VALID,0.100563,VALID,27.8889,VALID,236,VALID,0.317578,
2009-08-01, 02:45:04,VALID,1001.1,VALID,0,VALID,77.5705,VALID,0,VALID,27.8911,VALID,238,VALID,0.834375,
2009-08-01, 02:46:04,VALID,1001.06,VALID,0,VALID,77.6086,VALID,0,VALID,27.8716,VALID,248,VALID,0.933984,
2009-08-01, 02:47:04,VALID,1001.04,VALID,0,VALID,77.0364,VALID,0,VALID,27.8305,VALID,254,VALID,2.89219,
2009-08-01, 02:48:04,VALID,1001.08,VALID,0,VALID,77.1051,VALID,0,VALID,27.8521,VALID,172,VALID,0.629297,
2009-08-01, 02:49:04,VALID,1001.05,VALID,0,VALID,76.8915,VALID,0.100563,VALID,27.8716,VALID,241,VALID,1.34375,
2009-08-01, 02:50:04,VALID,1001.05,VALID,0,VALID,76.9067,VALID,0,VALID,27.8694,VALID,298,VALID,1.0957,
2009-08-01, 02:51:04,VALID,1001.03,VALID,0,VALID,77.0212,VALID,0,VALID,27.8694,VALID,250,VALID,0.771484,
2009-08-01, 02:52:04,VALID,1001.06,VALID,0,VALID,77.1738,VALID,0,VALID,27.85,VALID,266,VALID,0.619531,
2009-08-01, 02:53:04,VALID,1001.04,VALID,0,VALID,77.0288,VALID,0,VALID,27.8694,VALID,283,VALID,0.763672,
2009-08-01, 02:54:04,VALID,1001.06,VALID,0,VALID,77.0593,VALID,0.100563,VALID,27.85,VALID,288,VALID,0.826953,
2009-08-01, 02:55:04,VALID,1000.99,VALID,0,VALID,76.2201,VALID,0,VALID,27.85,VALID,270,VALID,1.80352,
2009-08-01, 02:56:04,VALID,1001.02,VALID,0,VALID,76.4948,VALID,0.100563,VALID,27.8673,VALID,269,VALID,1.11055,
2009-08-01, 02:57:04,VALID,1001.02,VALID,0,VALID,76.51,VALID,0,VALID,27.8694,VALID,281,VALID,1.60156,
2009-08-01, 02:58:04,VALID,1001.01,VALID,0,VALID,76.6397,VALID,0,VALID,27.8694,VALID,227,VALID,1.28711,
2009-08-01, 02:59:04,VALID,1000.98,VALID,0,VALID,76.6321,VALID,0,VALID,27.8911,VALID,303,VALID,1.3875,
2009-08-01, 03:00:04,VALID,1001.02,VALID,0,VALID,76.7694,VALID,0,VALID,27.8911,VALID,260,VALID,1.03672,
2009-08-01, 03:01:04,VALID,1001,VALID,0,VALID,76.3803,VALID,0,VALID,27.8694,VALID,289,VALID,1.70703,
2009-08-01, 03:02:04,VALID,1001.01,VALID,0,VALID,76.5177,VALID,0,VALID,27.85,VALID,292,VALID,1.80898,
2009-08-01, 03:03:04,VALID,1001,VALID,0,VALID,76.4338,VALID,0,VALID,27.8716,VALID,178,VALID,0.625,
2009-08-01, 03:04:04,VALID,1001.05,VALID,0,VALID,76.1133,VALID,0,VALID,27.8911,VALID,259,VALID,2.72383,
2009-08-01, 03:05:04,VALID,1001.02,VALID,0,VALID,75.854,VALID,0,VALID,27.8694,VALID,274,VALID,1.2957,
2009-08-01, 03:06:04,VALID,1001.03,VALID,0,VALID,75.9531,VALID,0,VALID,27.8911,VALID,254,VALID,1.74063,
2009-08-01, 03:07:04,VALID,1001.02,VALID,0,VALID,76.243,VALID,0,VALID,27.8911,VALID,270,VALID,0.635938,
2009-08-01, 03:08:04,VALID,1001.04,VALID,0,VALID,76.0523,VALID,0,VALID,27.9105,VALID,28,VALID,1.07109,
2009-08-01, 03:09:04,VALID,1001.03,VALID,0,VALID,76.0905,VALID,0,VALID,27.9084,VALID,256,VALID,2.17305,
2009-08-01, 03:10:04,VALID,1001.03,VALID,0,VALID,76.121,VALID,0,VALID,27.9495,VALID,296,VALID,1.03398,
2009-08-01, 03:11:04,VALID,1001.05,VALID,0,VALID,76.2964,VALID,0,VALID,27.9084,VALID,231,VALID,0.594141,
2009-08-01, 03:12:04,VALID,1001.03,VALID,0,VALID,76.3193,VALID,0,VALID,27.9084,VALID,243,VALID,0.305859,
2009-08-01, 03:13:04,VALID,1001.01,VALID,0,VALID,76.1286,VALID,0,VALID,27.9105,VALID,293,VALID,1.48594,
2009-08-01, 03:14:04,VALID,1001.01,VALID,0,VALID,76.3041,VALID,0,VALID,27.8889,VALID,303,VALID,1.06094,
2009-08-01, 03:15:04,VALID,1000.99,VALID,0,VALID,75.9379,VALID,0,VALID,27.9105,VALID,250,VALID,1.24531,
2009-08-01, 03:16:04,VALID,1001,VALID,0,VALID,75.7777,VALID,0,VALID,27.9105,VALID,264,VALID,1.53359,
2009-08-01, 03:17:04,VALID,1000.97,VALID,0,VALID,75.5412,VALID,0,VALID,27.9105,VALID,264,VALID,1.07187,
2009-08-01, 03:18:04,VALID,1000.98,VALID,0,VALID,75.5793,VALID,0,VALID,27.9105,VALID,310,VALID,0.976953,
2009-08-01, 03:19:04,VALID,1000.96,VALID,0,VALID,75.9379,VALID,0,VALID,27.93,VALID,240,VALID,1.09727,
2009-08-01, 03:20:04,VALID,1000.92,VALID,0,VALID,75.8997,VALID,0,VALID,27.93,VALID,260,VALID,0.919141,
2009-08-01, 03:21:04,VALID,1000.95,VALID,0,VALID,75.7853,VALID,0,VALID,27.8911,VALID,298,VALID,0.827344,
2009-08-01, 03:22:04,VALID,1000.89,VALID,0,VALID,75.7624,VALID,0,VALID,27.9105,VALID,249,VALID,0.813672,
2009-08-01, 03:23:04,VALID,1000.9,VALID,0,VALID,76.1591,VALID,0,VALID,27.8889,VALID,245,VALID,1.50508,
2009-08-01, 03:24:04,VALID,1000.9,VALID,0,VALID,75.9531,VALID,0.100563,VALID,27.9084,VALID,320,VALID,0.500391,
2009-08-01, 03:25:04,VALID,1000.88,VALID,0,VALID,75.9455,VALID,0,VALID,27.8889,VALID,172,VALID,0.869141,
2009-08-01, 03:26:04,VALID,1000.87,VALID,0,VALID,76.0905,VALID,0,VALID,27.8911,VALID,197,VALID,0.585938,
2009-08-01, 03:27:04,VALID,1000.89,VALID,0,VALID,76.3498,VALID,0,VALID,27.9105,VALID,215,VALID,0.462109,
2009-08-01, 03:28:04,VALID,1000.87,VALID,0,VALID,76.3575,VALID,0,VALID,27.8694,VALID,175,VALID,0.642578,
2009-08-01, 03:29:04,VALID,1000.87,VALID,0,VALID,76.1133,VALID,0,VALID,27.8911,VALID,297,VALID,0.75,
2009-08-01, 03:30:04,VALID,1000.89,VALID,0,VALID,76.449,VALID,0,VALID,27.85,VALID,241,VALID,0.730469,
2009-08-01, 03:31:04,VALID,1000.89,VALID,0,VALID,76.5863,VALID,0,VALID,27.8716,VALID,221,VALID,0.309766,
2009-08-01, 03:32:04,VALID,1000.88,VALID,0,VALID,76.8686,VALID,0,VALID,27.8326,VALID,193,VALID,0.6875,
2009-08-01, 03:33:04,VALID,1000.89,VALID,0,VALID,76.3041,VALID,0,VALID,27.811,VALID,292,VALID,1.19687,
2009-08-01, 03:34:04,VALID,1000.92,VALID,0,VALID,76.5711,VALID,0,VALID,27.8326,VALID,81,VALID,0.699219,
2009-08-01, 03:35:04,VALID,1000.92,VALID,0,VALID,76.9601,VALID,0,VALID,27.8521,VALID,224,VALID,0.522656,
2009-08-01, 03:36:04,VALID,1000.92,VALID,0,VALID,76.3422,VALID,0,VALID,27.8326,VALID,208,VALID,0.511719,
2009-08-01, 03:37:04,VALID,1000.94,VALID,0,VALID,76.6702,VALID,0,VALID,27.8521,VALID,141,VALID,0.491797,
2009-08-01, 03:38:04,VALID,1000.94,VALID,0,VALID,76.8762,VALID,0,VALID,27.8326,VALID,322,VALID,0.826953,
2009-08-01, 03:39:04,VALID,1000.98,VALID,0,VALID,77.3416,VALID,0,VALID,27.8521,VALID,215,VALID,0.854297,
2009-08-01, 03:40:04,VALID,1000.99,VALID,0,VALID,77.6086,VALID,0,VALID,27.8326,VALID,298,VALID,0.610547,
2009-08-01, 03:41:04,VALID,1001.01,VALID,0,VALID,78.0816,VALID,0,VALID,27.85,VALID,200,VALID,0.49375,
2009-08-01, 03:42:04,VALID,1001,VALID,0,VALID,78.7834,VALID,0,VALID,27.8737,VALID,189,VALID,0.5,
2009-08-01, 03:43:04,VALID,1001.01,VALID,0,VALID,77.5781,VALID,0.100563,VALID,27.8716,VALID,251,VALID,1.37695,
2009-08-01, 03:44:04,VALID,1001.01,VALID,0,VALID,77.8375,VALID,0,VALID,27.8716,VALID,253,VALID,1.20469,